FW0659 Weather Reports


Display with metric or nautical units.
time (UTC)temp
F
wind
direction
speed
MPH
gust
MPH
rain 1hr
in
rain 24hr
in
rain mn
in
humidity
%
barometer
mb
20260504081503 44 205 2.0 5.0 0.00 0.00 0.00 64 1009.2
20260504044543 47 209 1.0 5.0 0.00 0.00 0.00 66 1009.4
20260504043051 47 209 3.0 5.0 0.00 0.00 0.00 66 1009.4
20260504041536 47 209 3.0 5.0 0.00 0.00 0.00 65 1009.3
20260504040031 48 211 4.0 6.0 0.00 0.00 0.00 62 1009.4
20260504034537 49 185 3.0 7.0 0.00 0.00 0.00 61 1009.3
20260504033030 49 195 2.0 5.0 0.00 0.00 0.00 60 1009.5
20260504031529 50 196 2.0 7.0 0.00 0.00 0.00 58 1009.4
20260504030035 50 160 2.0 8.0 0.00 0.00 0.00 56 1009.4
20260504024528 51 192 4.0 6.0 0.00 0.00 0.00 55 1009.5
20260504023030 52 271 2.0 4.0 0.00 0.00 0.00 54 1009.7
20260504021530 52 271 1.0 4.0 0.00 0.00 0.00 52 1009.7
20260504020034 52 271 0.0 4.0 0.00 0.00 0.00 50 1009.6
20260504014526 53 272 1.0 2.0 0.00 0.00 0.00 52 1009.5
20260504013033 53 272 1.0 2.0 0.00 0.00 0.00 51 1009.4
20260504011525 54 272 0.0 2.0 0.00 0.00 0.00 46 1009.3
20260504010024 55 272 2.0 3.0 0.00 0.00 0.00 44 1009.2
20260504004537 56 287 2.0 8.0 0.00 0.00 0.00 40 1009.0
20260504003023 56 257 0.0 12.0 0.00 0.00 0.00 41 1009.0
20260504001531 56 257 1.0 3.0 0.00 0.00 0.00 40 1008.8
20260504000022 57 257 2.0 7.0 0.00 0.00 0.00 39 1008.6
20260503234526 57 272 4.0 7.0 0.00 0.00 0.00 38 1008.5
20260503233021 57 230 4.0 9.0 0.00 0.00 0.00 38 1008.4
20260503231522 57 263 4.0 9.0 0.00 0.00 0.00 38 1008.4
20260503230025 57 273 2.0 10.0 0.00 0.00 0.00 38 1008.4
20260503224518 57 230 3.0 9.0 0.00 0.00 0.00 38 1008.5
20260503223019 57 227 2.0 5.0 0.00 0.00 0.00 38 1008.5
20260503221517 57 228 3.0 9.0 0.00 0.00 0.00 38 1008.5
20260503220027 57 232 4.0 8.0 0.00 0.00 0.00 38 1008.8
20260503214528 56 280 4.0 10.0 0.00 0.00 0.00 39 1008.8
20260503213028 57 344 3.0 9.0 0.00 0.00 0.00 39 1008.8
20260503211515 56 268 8.0 13.0 0.00 0.00 0.00 39 1008.8
20260503210016 57 282 6.0 15.0 0.00 0.00 0.00 40 1009.0
20260503204522 57 307 9.0 16.0 0.00 0.00 0.00 40 1009.1
20260503203013 56 291 8.0 18.0 0.00 0.00 0.00 37 1009.0
20260503201510 57 248 11.0 17.0 0.00 0.00 0.00 35 1009.0
20260503200009 58 315 4.0 19.0 0.00 0.00 0.00 33 1008.9
20260503194508 58 258 8.0 16.0 0.00 0.00 0.00 33 1008.9
20260503193008 57 286 7.0 18.0 0.00 0.00 0.00 32 1009.3
20260503191506 59 281 10.0 19.0 0.00 0.00 0.00 31 1009.4
20260503190014 58 321 7.0 20.0 0.00 0.00 0.00 31 1009.5
20260503184507 58 317 8.0 16.0 0.00 0.00 0.00 31 1009.5
20260503183001 59 340 4.0 13.0 0.00 0.00 0.00 30 1009.8
20260503181608 58 310 9.0 20.0 0.00 0.00 0.00 31 1010.0
20260503180056 57 269 10.0 18.0 0.00 0.00 0.00 33 1010.2
20260503174603 56 256 7.0 14.0 0.00 0.00 0.00 33 1010.4
20260503173053 56 240 6.0 13.0 0.00 0.00 0.00 33 1010.7
20260503171550 57 5 6.0 19.0 0.00 0.00 0.00 32 1010.8